Wolf Creek Observed Data For Previous 48 Hours

Caption
Day and Hour Reservoir Elevation (behind dam)* Tailwater Elevation (below dam)* Average Hourly Discharge*
3/22/2019 1 AM CDT 731.87 567.47 38,040
3/22/2019 2 AM CDT 731.82 567.42 38,040
3/22/2019 3 AM CDT 731.77 567.37 37,940
3/22/2019 4 AM CDT 731.73 567.33 37,940
3/22/2019 5 AM CDT 731.68 567.38 37,840
3/22/2019 6 AM CDT 731.64 567.34 37,740
3/22/2019 7 AM CDT 731.57 567.27 37,640
3/22/2019 8 AM CDT 731.53 567.13 37,640
3/22/2019 9 AM CDT 731.46 567.06 37,540
3/22/2019 10 AM CDT 731.40 567.00 37,440
3/22/2019 11 AM CDT 731.36 567.06 37,420
3/22/2019 12 PM CDT 731.33 567.03 37,320
3/22/2019 1 PM CDT 731.29 567.09 37,340
3/22/2019 2 PM CDT 731.24 567.04 37,240
3/22/2019 3 PM CDT 731.19 566.99 37,140
3/22/2019 4 PM CDT 731.14 566.94 37,140
3/22/2019 5 PM CDT 731.09 566.99 37,040
3/22/2019 6 PM CDT 731.04 - 999.00 36,940
3/22/2019 7 PM CDT 731.00 566.80 36,940
3/22/2019 8 PM CDT 730.96 566.86 36,840
3/22/2019 9 PM CDT 730.91 566.81 36,740
3/22/2019 10 PM CDT 730.87 566.77 36,740
3/22/2019 11 PM CDT 730.82 566.72 36,640
3/23/2019 12 AM CDT 730.77 566.67 36,640
3/23/2019 1 AM CDT 730.73 566.63 36,540
3/23/2019 2 AM CDT 730.68 566.68 36,440
3/23/2019 3 AM CDT 730.63 566.63 36,440
3/23/2019 4 AM CDT 730.60 566.60 36,340
3/23/2019 5 AM CDT 730.57 566.57 36,340
3/23/2019 6 AM CDT 730.54 566.54 36,240
3/23/2019 7 AM CDT 730.48 566.38 36,140
3/23/2019 8 AM CDT 730.42 566.32 36,140
3/23/2019 9 AM CDT 730.37 566.27 36,040
3/23/2019 10 AM CDT 730.32 566.22 35,940
3/23/2019 11 AM CDT 730.26 566.26 35,840
3/23/2019 12 PM CDT 730.21 566.21 35,840
3/23/2019 1 PM CDT 730.17 566.17 35,740
3/23/2019 2 PM CDT 730.13 566.13 35,740
3/23/2019 3 PM CDT 730.09 566.09 35,640
3/23/2019 4 PM CDT 730.05 566.15 35,540
3/23/2019 5 PM CDT 730.01 566.01 35,540
3/23/2019 6 PM CDT 729.96 566.06 35,440
3/23/2019 7 PM CDT 729.91 566.01 35,340
3/23/2019 8 PM CDT 729.86 565.96 35,340
3/23/2019 9 PM CDT 729.81 565.91 35,240
3/23/2019 10 PM CDT 729.77 565.87 35,140
3/23/2019 11 PM CDT 729.73 565.83 35,140
3/24/2019 12 AM CDT 729.70 565.80 35,040

Elevations are in feet above sea level. Discharges are in cubic feet per second and are reported at the end of the hour.